Year,Month,Day,Hour,Minute,Value (Times are PST for temperature in C)
2014,07,11,00,00,17.60
2014,07,11,00,01,17.60
2014,07,11,00,02,17.60
2014,07,11,00,03,17.60
2014,07,11,00,04,17.60
2014,07,11,00,05,17.60
2014,07,11,00,06,17.60
2014,07,11,00,07,17.60
2014,07,11,00,08,17.60
2014,07,11,00,09,17.60
2014,07,11,00,10,17.60
2014,07,11,00,11,17.50
2014,07,11,00,12,17.50
2014,07,11,00,13,17.50
2014,07,11,00,14,17.50
2014,07,11,00,15,17.50
2014,07,11,00,16,17.50
2014,07,11,00,17,17.50
2014,07,11,00,18,17.50
2014,07,11,00,19,17.40
2014,07,11,00,20,17.40
2014,07,11,00,21,17.40
2014,07,11,00,22,17.40
2014,07,11,00,23,17.40
2014,07,11,00,24,17.40
2014,07,11,00,25,17.40
2014,07,11,00,26,17.40
2014,07,11,00,27,17.40
2014,07,11,00,28,17.40
2014,07,11,00,29,17.40
2014,07,11,00,30,17.40
2014,07,11,00,31,17.30
2014,07,11,00,32,17.30
2014,07,11,00,33,17.30
2014,07,11,00,34,17.30
2014,07,11,00,35,17.30
2014,07,11,00,36,17.30
2014,07,11,00,37,17.30
2014,07,11,00,38,17.30
2014,07,11,00,39,17.30
2014,07,11,00,40,17.30
2014,07,11,00,41,17.30
2014,07,11,00,42,17.30
2014,07,11,00,43,17.30
2014,07,11,00,44,17.30
2014,07,11,00,45,17.30
2014,07,11,00,46,17.30
2014,07,11,00,47,17.30
2014,07,11,00,48,17.30
2014,07,11,00,49,17.20
2014,07,11,00,50,17.20
2014,07,11,00,51,17.20
2014,07,11,00,52,17.20
2014,07,11,00,53,17.10
2014,07,11,00,54,17.10
2014,07,11,00,55,17.10
2014,07,11,00,56,17.10
2014,07,11,00,57,17.00
2014,07,11,00,58,17.00
2014,07,11,00,59,17.00
2014,07,11,01,00,16.90
2014,07,11,01,01,16.90
2014,07,11,01,02,16.90
2014,07,11,01,03,16.90
2014,07,11,01,04,16.90
2014,07,11,01,05,16.90
2014,07,11,01,06,16.90
2014,07,11,01,07,16.90
2014,07,11,01,08,16.90
2014,07,11,01,09,16.90
2014,07,11,01,10,16.80
2014,07,11,01,11,16.80
2014,07,11,01,12,16.80
2014,07,11,01,13,16.80
2014,07,11,01,14,16.80
2014,07,11,01,15,16.80
2014,07,11,01,16,16.80
2014,07,11,01,17,16.80
2014,07,11,01,18,16.80
2014,07,11,01,19,16.80
2014,07,11,01,20,16.80
2014,07,11,01,21,16.80
2014,07,11,01,22,16.80
2014,07,11,01,23,16.80
2014,07,11,01,24,16.80
2014,07,11,01,25,16.80
2014,07,11,01,26,16.80
2014,07,11,01,27,16.80
2014,07,11,01,28,16.80
2014,07,11,01,29,16.80
2014,07,11,01,30,16.80
2014,07,11,01,31,16.80
2014,07,11,01,32,16.80
2014,07,11,01,33,16.70
2014,07,11,01,34,16.70
2014,07,11,01,35,16.70
2014,07,11,01,36,16.70
2014,07,11,01,37,16.70
2014,07,11,01,38,16.70
2014,07,11,01,39,16.70
2014,07,11,01,40,16.70
2014,07,11,01,41,16.60
2014,07,11,01,42,16.60
2014,07,11,01,43,16.60
2014,07,11,01,44,16.60
2014,07,11,01,45,16.60
2014,07,11,01,46,16.60
2014,07,11,01,47,16.60
2014,07,11,01,48,16.60
2014,07,11,01,49,16.50
2014,07,11,01,50,16.50
2014,07,11,01,51,16.50
2014,07,11,01,52,16.50
2014,07,11,01,53,16.40
2014,07,11,01,54,16.40
2014,07,11,01,55,16.40
2014,07,11,01,56,16.40
2014,07,11,01,57,16.40
2014,07,11,01,58,16.40
2014,07,11,01,59,16.40
2014,07,11,02,00,16.30
2014,07,11,02,01,16.30
2014,07,11,02,02,16.30
2014,07,11,02,03,16.30
2014,07,11,02,04,16.30
2014,07,11,02,05,16.30
2014,07,11,02,06,16.20
2014,07,11,02,07,16.20
2014,07,11,02,08,16.20
2014,07,11,02,09,16.20
2014,07,11,02,10,16.20
2014,07,11,02,11,16.20
2014,07,11,02,12,16.20
2014,07,11,02,13,16.20
2014,07,11,02,14,16.20
2014,07,11,02,15,16.20
2014,07,11,02,16,16.20
2014,07,11,02,17,16.20
2014,07,11,02,18,16.20
2014,07,11,02,19,16.20
2014,07,11,02,20,16.20
2014,07,11,02,21,16.10
2014,07,11,02,22,16.10
2014,07,11,02,23,16.10
2014,07,11,02,24,16.10
2014,07,11,02,25,16.10
2014,07,11,02,26,16.10
2014,07,11,02,27,16.10
2014,07,11,02,28,16.00
2014,07,11,02,29,16.00
2014,07,11,02,30,16.00
2014,07,11,02,31,16.00
2014,07,11,02,32,16.00
2014,07,11,02,33,16.00
2014,07,11,02,34,15.90
2014,07,11,02,35,15.90
2014,07,11,02,36,15.90
2014,07,11,02,37,15.90
2014,07,11,02,38,15.90
2014,07,11,02,39,15.90
2014,07,11,02,40,15.90
2014,07,11,02,41,15.90
2014,07,11,02,42,15.90
2014,07,11,02,43,15.90
2014,07,11,02,44,15.90
2014,07,11,02,45,15.80
2014,07,11,02,46,15.80
2014,07,11,02,47,15.80
2014,07,11,02,48,15.80
2014,07,11,02,49,15.80
2014,07,11,02,50,15.80
2014,07,11,02,51,15.80
2014,07,11,02,52,15.80
2014,07,11,02,53,15.80
2014,07,11,02,54,15.80
2014,07,11,02,55,15.80
2014,07,11,02,56,15.70
2014,07,11,02,57,15.70
2014,07,11,02,58,15.70
2014,07,11,02,59,15.70
2014,07,11,03,00,15.70
2014,07,11,03,01,15.60
2014,07,11,03,02,15.60
2014,07,11,03,03,15.60
2014,07,11,03,06,15.60
2014,07,11,03,07,15.60
2014,07,11,03,08,15.50
2014,07,11,03,09,15.50
2014,07,11,03,10,15.50
2014,07,11,03,11,15.50
2014,07,11,03,12,15.50
2014,07,11,03,13,15.50
2014,07,11,03,14,15.50
2014,07,11,03,15,15.40
2014,07,11,03,16,15.40
2014,07,11,03,17,15.40
2014,07,11,03,18,15.40
2014,07,11,03,19,15.40
2014,07,11,03,20,15.40
2014,07,11,03,21,15.30
2014,07,11,03,22,15.30
2014,07,11,03,23,15.30
2014,07,11,03,24,15.30
2014,07,11,03,25,15.30
2014,07,11,03,26,15.30
2014,07,11,03,27,15.30
2014,07,11,03,28,15.20
2014,07,11,03,29,15.20
2014,07,11,03,30,15.20
2014,07,11,03,31,15.20
2014,07,11,03,32,15.20
2014,07,11,03,33,15.20
2014,07,11,03,34,15.20
2014,07,11,03,35,15.20
2014,07,11,03,36,15.20
2014,07,11,03,37,15.10
2014,07,11,03,38,15.10
2014,07,11,03,39,15.10
2014,07,11,03,40,15.10
2014,07,11,03,41,15.10
2014,07,11,03,42,15.10
2014,07,11,03,43,15.00
2014,07,11,03,44,15.00
2014,07,11,03,45,15.00
2014,07,11,03,46,15.00
2014,07,11,03,47,15.00
2014,07,11,03,48,14.90
2014,07,11,03,49,14.90
2014,07,11,03,50,14.90
2014,07,11,03,51,14.90
2014,07,11,03,52,14.90
2014,07,11,03,53,14.90
2014,07,11,03,54,14.90
2014,07,11,03,55,14.90
2014,07,11,03,56,14.90
2014,07,11,03,57,14.90
2014,07,11,03,58,14.90
2014,07,11,03,59,14.90
2014,07,11,04,00,14.80
2014,07,11,04,01,14.80
2014,07,11,04,02,14.80
2014,07,11,04,03,14.80
2014,07,11,04,04,14.80
2014,07,11,04,05,14.80
2014,07,11,04,06,14.80
2014,07,11,04,07,14.70
2014,07,11,04,08,14.70
2014,07,11,04,09,14.70
2014,07,11,04,10,14.70
2014,07,11,04,11,14.70
2014,07,11,04,12,14.70
2014,07,11,04,13,14.70
2014,07,11,04,14,14.70
2014,07,11,04,15,14.70
2014,07,11,04,16,14.70
2014,07,11,04,17,14.70
2014,07,11,04,18,14.70
2014,07,11,04,19,14.70
2014,07,11,04,20,14.70
2014,07,11,04,21,14.70
2014,07,11,04,22,14.60
2014,07,11,04,23,14.60
2014,07,11,04,24,14.60
2014,07,11,04,25,14.60
2014,07,11,04,26,14.60
2014,07,11,04,27,14.60
2014,07,11,04,28,14.60
2014,07,11,04,29,14.60
2014,07,11,04,30,14.50
2014,07,11,04,31,14.50
2014,07,11,04,32,14.50
2014,07,11,04,33,14.40
2014,07,11,04,34,14.40
2014,07,11,04,35,14.40
2014,07,11,04,36,14.40
2014,07,11,04,37,14.40
2014,07,11,04,38,14.40
2014,07,11,04,39,14.30
2014,07,11,04,40,14.30
2014,07,11,04,41,14.30
2014,07,11,04,42,14.30
2014,07,11,04,43,14.30
2014,07,11,04,44,14.30
2014,07,11,04,45,14.30
2014,07,11,04,46,14.40
2014,07,11,04,47,14.40
2014,07,11,04,48,14.40
2014,07,11,04,49,14.40
2014,07,11,04,50,14.40
2014,07,11,04,51,14.40
2014,07,11,04,52,14.40
2014,07,11,04,53,14.30
2014,07,11,04,54,14.30
2014,07,11,04,55,14.30
2014,07,11,04,56,14.30
2014,07,11,04,57,14.30
2014,07,11,04,58,14.30
2014,07,11,04,59,14.30
2014,07,11,05,00,14.30
2014,07,11,05,01,14.30
2014,07,11,05,02,14.30
2014,07,11,05,03,14.30
2014,07,11,05,04,14.30
2014,07,11,05,05,14.30
2014,07,11,05,06,14.30
2014,07,11,05,07,14.20
2014,07,11,05,08,14.20
2014,07,11,05,09,14.20
2014,07,11,05,10,14.20
2014,07,11,05,11,14.20
2014,07,11,05,12,14.20
2014,07,11,05,13,14.20
2014,07,11,05,14,14.20
2014,07,11,05,15,14.20
2014,07,11,05,16,14.10
2014,07,11,05,17,14.10
2014,07,11,05,18,14.10
2014,07,11,05,19,14.10
2014,07,11,05,20,14.10
2014,07,11,05,21,14.10
2014,07,11,05,22,14.10
2014,07,11,05,23,14.00
2014,07,11,05,24,14.10
2014,07,11,05,25,14.10
2014,07,11,05,26,14.10
2014,07,11,05,27,14.10
2014,07,11,05,28,14.10
2014,07,11,05,29,14.00
2014,07,11,05,30,14.00
2014,07,11,05,31,14.00
2014,07,11,05,32,14.00
2014,07,11,05,33,14.00
2014,07,11,05,34,14.00
2014,07,11,05,35,14.00
2014,07,11,05,36,14.00
2014,07,11,05,37,14.00
2014,07,11,05,38,14.00
2014,07,11,05,39,14.00
2014,07,11,05,40,14.00
2014,07,11,05,41,14.00
2014,07,11,05,42,14.00
2014,07,11,05,43,14.00
2014,07,11,05,44,14.00
2014,07,11,05,45,14.00
2014,07,11,05,46,13.90
2014,07,11,05,47,13.90
2014,07,11,05,48,13.90
2014,07,11,05,49,13.90
2014,07,11,05,50,13.90
2014,07,11,05,51,13.90
2014,07,11,05,52,13.90
2014,07,11,05,53,13.80
2014,07,11,05,54,13.80
2014,07,11,05,55,13.80
2014,07,11,05,56,13.80
2014,07,11,05,57,13.80
2014,07,11,05,58,13.80
2014,07,11,05,59,13.80
2014,07,11,06,00,13.70
2014,07,11,06,01,13.70
2014,07,11,06,02,13.70
2014,07,11,06,03,13.70
2014,07,11,06,04,13.70
2014,07,11,06,05,13.70
2014,07,11,06,06,13.70
2014,07,11,06,07,13.70
2014,07,11,06,08,13.70
2014,07,11,06,09,13.70
2014,07,11,06,10,13.60
2014,07,11,06,11,13.60
2014,07,11,06,12,13.60
2014,07,11,06,13,13.60
2014,07,11,06,14,13.60
2014,07,11,06,15,13.60
2014,07,11,06,16,13.60
2014,07,11,06,17,13.60
2014,07,11,06,18,13.60
2014,07,11,06,19,13.60
2014,07,11,06,20,13.60
2014,07,11,06,21,13.60
2014,07,11,06,22,13.60
2014,07,11,06,23,13.60
2014,07,11,06,24,13.60
2014,07,11,06,25,13.60
2014,07,11,06,26,13.70
2014,07,11,06,27,13.70
2014,07,11,06,28,13.70
2014,07,11,06,29,13.70
2014,07,11,06,30,13.70
2014,07,11,06,31,13.70
2014,07,11,06,32,13.70
2014,07,11,06,33,13.70
2014,07,11,06,34,13.70
2014,07,11,06,35,13.70
2014,07,11,06,36,13.70
2014,07,11,06,37,13.70
2014,07,11,06,38,13.80
2014,07,11,06,39,13.80
2014,07,11,06,40,13.80
2014,07,11,06,41,13.80
2014,07,11,06,42,13.80
2014,07,11,06,43,13.90
2014,07,11,06,44,13.90
2014,07,11,06,45,14.00
2014,07,11,06,46,14.10
2014,07,11,06,47,14.10
2014,07,11,06,48,14.20
2014,07,11,06,49,14.30
2014,07,11,06,50,14.40
2014,07,11,06,51,14.50
2014,07,11,06,52,14.60
2014,07,11,06,53,14.70
2014,07,11,06,54,14.70
2014,07,11,06,55,14.80
2014,07,11,06,56,14.90
2014,07,11,06,57,15.00
2014,07,11,06,58,15.10
2014,07,11,06,59,15.10
2014,07,11,07,00,15.20
2014,07,11,07,01,15.30
2014,07,11,07,02,15.40
2014,07,11,07,03,15.50
2014,07,11,07,04,15.60
2014,07,11,07,05,15.70
2014,07,11,07,06,15.80
2014,07,11,07,07,15.90
2014,07,11,07,08,16.00
2014,07,11,07,09,16.10
2014,07,11,07,10,16.10
2014,07,11,07,11,16.20
2014,07,11,07,12,16.30
2014,07,11,07,13,16.30
2014,07,11,07,14,16.40
2014,07,11,07,15,16.50
2014,07,11,07,16,16.50
2014,07,11,07,17,16.60
2014,07,11,07,18,16.60
2014,07,11,07,19,16.60
2014,07,11,07,20,16.70
2014,07,11,07,21,16.70
2014,07,11,07,22,16.70
2014,07,11,07,23,16.70
2014,07,11,07,24,16.80
2014,07,11,07,25,16.80
2014,07,11,07,26,16.90
2014,07,11,07,27,16.90
2014,07,11,07,28,17.00
2014,07,11,07,29,17.10
2014,07,11,07,30,17.10
2014,07,11,07,31,17.20
2014,07,11,07,32,17.20
2014,07,11,07,33,17.20
2014,07,11,07,34,17.30
2014,07,11,07,35,17.40
2014,07,11,07,36,17.40
2014,07,11,07,37,17.40
2014,07,11,07,38,17.40
2014,07,11,07,39,17.40
2014,07,11,07,40,17.40
2014,07,11,07,41,17.40
2014,07,11,07,42,17.50
2014,07,11,07,43,17.50
2014,07,11,07,44,17.60
2014,07,11,07,45,17.60
2014,07,11,07,46,17.60
2014,07,11,07,47,17.60
2014,07,11,07,48,17.60
2014,07,11,07,49,17.70
2014,07,11,07,50,17.70
2014,07,11,07,51,17.80
2014,07,11,07,52,17.80
2014,07,11,07,53,17.80
2014,07,11,07,54,17.90
2014,07,11,07,55,17.90
2014,07,11,07,56,17.90
2014,07,11,07,57,17.90
2014,07,11,07,58,17.90
2014,07,11,07,59,17.90
2014,07,11,08,00,17.90
2014,07,11,08,01,17.90
2014,07,11,08,02,17.90
2014,07,11,08,03,18.00
2014,07,11,08,04,18.00
2014,07,11,08,05,18.00
2014,07,11,08,06,18.00
2014,07,11,08,07,18.00
2014,07,11,08,08,18.10
2014,07,11,08,09,18.10
2014,07,11,08,10,18.10
2014,07,11,08,11,18.10
2014,07,11,08,12,18.20
2014,07,11,08,13,18.20
2014,07,11,08,14,18.30
2014,07,11,08,15,18.30
2014,07,11,08,16,18.30
2014,07,11,08,17,18.40
2014,07,11,08,18,18.40
2014,07,11,08,19,18.50
2014,07,11,08,20,18.60
2014,07,11,08,21,18.60
2014,07,11,08,22,18.70
2014,07,11,08,23,18.70
2014,07,11,08,24,18.70
2014,07,11,08,25,18.80
2014,07,11,08,26,18.80
2014,07,11,08,27,18.90
2014,07,11,08,28,18.90
2014,07,11,08,29,19.00
2014,07,11,08,30,19.00
2014,07,11,08,31,19.10
2014,07,11,08,32,19.20
2014,07,11,08,33,19.20
2014,07,11,08,34,19.30
2014,07,11,08,35,19.30
2014,07,11,08,36,19.30
2014,07,11,08,37,19.40
2014,07,11,08,38,19.40
2014,07,11,08,39,19.50
2014,07,11,08,40,19.50
2014,07,11,08,41,19.60
2014,07,11,08,42,19.60
2014,07,11,08,43,19.60
2014,07,11,08,44,19.70
2014,07,11,08,45,19.70
2014,07,11,08,46,19.70
2014,07,11,08,47,19.70
2014,07,11,08,48,19.70
2014,07,11,08,49,19.70
2014,07,11,08,50,19.80
2014,07,11,08,51,19.90
2014,07,11,08,52,20.00
2014,07,11,08,53,20.10
2014,07,11,08,54,20.10
2014,07,11,08,55,20.20
2014,07,11,08,56,20.20
2014,07,11,08,57,20.30
2014,07,11,08,58,20.30
2014,07,11,08,59,20.40
2014,07,11,09,00,20.40
2014,07,11,09,01,20.40
2014,07,11,09,02,20.40
2014,07,11,09,03,20.40
2014,07,11,09,04,20.40
2014,07,11,09,05,20.40
2014,07,11,09,06,20.40
2014,07,11,09,07,20.40
2014,07,11,09,08,20.40
2014,07,11,09,09,20.50
2014,07,11,09,10,20.60
2014,07,11,09,11,20.60
2014,07,11,09,12,20.60
2014,07,11,09,13,20.50
2014,07,11,09,14,20.50
2014,07,11,09,15,20.50
2014,07,11,09,16,20.50
2014,07,11,09,17,20.60
2014,07,11,09,18,20.60
2014,07,11,09,19,20.60
2014,07,11,09,20,20.70
2014,07,11,09,21,20.70
2014,07,11,09,22,20.70
2014,07,11,09,23,20.70
2014,07,11,09,24,20.70
2014,07,11,09,25,20.80
2014,07,11,09,26,20.80
2014,07,11,09,27,20.80
2014,07,11,09,28,20.90
2014,07,11,09,29,20.90
2014,07,11,09,30,21.00
2014,07,11,09,31,21.00
2014,07,11,09,32,21.10
2014,07,11,09,33,21.20
2014,07,11,09,34,21.30
2014,07,11,09,35,21.30
2014,07,11,09,36,21.40
2014,07,11,09,37,21.40
2014,07,11,09,38,21.50
2014,07,11,09,39,21.50
2014,07,11,09,40,21.60
2014,07,11,09,41,21.60
2014,07,11,09,42,21.60
2014,07,11,09,43,21.60
2014,07,11,09,44,21.60
2014,07,11,09,45,21.60
2014,07,11,09,46,21.60
2014,07,11,09,47,21.60
2014,07,11,09,48,21.60
2014,07,11,09,49,21.60
2014,07,11,09,50,21.60
2014,07,11,09,51,21.60
2014,07,11,09,52,21.70
2014,07,11,09,53,21.80
2014,07,11,09,54,21.80
2014,07,11,09,55,21.80
2014,07,11,09,56,21.80
2014,07,11,09,57,21.90
2014,07,11,09,58,21.90
2014,07,11,09,59,22.00
2014,07,11,10,00,22.00
2014,07,11,10,01,22.10
2014,07,11,10,02,22.20
2014,07,11,10,03,22.30
2014,07,11,10,04,22.30
2014,07,11,10,05,22.40
2014,07,11,10,06,22.40
2014,07,11,10,07,22.50
2014,07,11,10,08,22.60
2014,07,11,10,09,22.70
2014,07,11,10,10,22.80
2014,07,11,10,11,22.80
2014,07,11,10,12,22.80
2014,07,11,10,13,22.80
2014,07,11,10,14,22.80
2014,07,11,10,15,22.80
2014,07,11,10,16,22.80
2014,07,11,10,17,22.90
2014,07,11,10,18,22.90
2014,07,11,10,19,23.00
2014,07,11,10,20,23.10
2014,07,11,10,21,23.10
2014,07,11,10,22,23.10
2014,07,11,10,23,23.10
2014,07,11,10,24,23.10
2014,07,11,10,25,23.10
2014,07,11,10,26,23.20
2014,07,11,10,27,23.30
2014,07,11,10,28,23.40
2014,07,11,10,29,23.50
2014,07,11,10,30,23.60
2014,07,11,10,31,23.60
2014,07,11,10,32,23.60
2014,07,11,10,33,23.60
2014,07,11,10,34,23.60
2014,07,11,10,35,23.70
2014,07,11,10,36,23.70
2014,07,11,10,37,23.80
2014,07,11,10,38,23.80
2014,07,11,10,39,23.80
2014,07,11,10,40,23.90
2014,07,11,10,41,23.90
2014,07,11,10,42,24.00
2014,07,11,10,43,24.00
2014,07,11,10,44,24.10
2014,07,11,10,45,24.20
2014,07,11,10,46,24.20
2014,07,11,10,47,24.30
2014,07,11,10,48,24.30
2014,07,11,10,49,24.40
2014,07,11,10,50,24.50
2014,07,11,10,51,24.60
2014,07,11,10,52,24.60
2014,07,11,10,53,24.60
2014,07,11,10,54,24.70
2014,07,11,10,55,24.70
2014,07,11,10,56,24.80
2014,07,11,10,57,24.80
2014,07,11,10,58,24.90
2014,07,11,10,59,24.90
2014,07,11,11,00,25.00
2014,07,11,11,01,25.00
2014,07,11,11,02,25.10
2014,07,11,11,03,25.20
2014,07,11,11,04,25.20
2014,07,11,11,05,25.30
2014,07,11,11,06,25.40
2014,07,11,11,07,25.40
2014,07,11,11,08,25.40
2014,07,11,11,09,25.40
2014,07,11,11,10,25.50
2014,07,11,11,11,25.60
2014,07,11,11,12,25.60
2014,07,11,11,13,25.60
2014,07,11,11,14,25.50
2014,07,11,11,15,25.60
2014,07,11,11,16,25.60
2014,07,11,11,17,25.70
2014,07,11,11,18,25.80
2014,07,11,11,19,25.90
2014,07,11,11,20,25.90
2014,07,11,11,21,25.90
2014,07,11,11,22,25.90
2014,07,11,11,23,25.90
2014,07,11,11,24,26.00
2014,07,11,11,25,26.00
2014,07,11,11,26,26.10
2014,07,11,11,27,26.10
2014,07,11,11,28,26.10
2014,07,11,11,29,26.10
2014,07,11,11,30,26.00
2014,07,11,11,31,26.00
2014,07,11,11,32,26.00
2014,07,11,11,33,26.00
2014,07,11,11,34,26.10
2014,07,11,11,35,26.20
2014,07,11,11,36,26.30
2014,07,11,11,37,26.30
2014,07,11,11,38,26.30
2014,07,11,11,39,26.40
2014,07,11,11,40,26.40
2014,07,11,11,41,26.50
2014,07,11,11,42,26.60
2014,07,11,11,43,26.70
2014,07,11,11,44,26.80
2014,07,11,11,45,26.80
2014,07,11,11,46,26.80
2014,07,11,11,47,26.80
2014,07,11,11,48,26.90
2014,07,11,11,49,26.90
2014,07,11,11,50,26.90
2014,07,11,11,51,27.00
2014,07,11,11,52,27.10
2014,07,11,11,53,27.20
2014,07,11,11,54,27.30
2014,07,11,11,55,27.30
2014,07,11,11,56,27.20
2014,07,11,11,57,27.30
2014,07,11,11,58,27.30
2014,07,11,11,59,27.30
2014,07,11,12,00,27.40
2014,07,11,12,01,27.50
2014,07,11,12,02,27.50
2014,07,11,12,03,27.60
2014,07,11,12,04,27.60
2014,07,11,12,05,27.60
2014,07,11,12,06,27.60
2014,07,11,12,07,27.60
2014,07,11,12,08,27.60
2014,07,11,12,09,27.60
2014,07,11,12,10,27.70
2014,07,11,12,11,27.80
2014,07,11,12,12,27.90
2014,07,11,12,13,28.10
2014,07,11,12,14,28.20
2014,07,11,12,15,28.30
2014,07,11,12,16,28.30
2014,07,11,12,17,28.40
2014,07,11,12,18,28.40
2014,07,11,12,19,28.30
2014,07,11,12,20,28.40
2014,07,11,12,21,28.50
2014,07,11,12,22,28.60
2014,07,11,12,23,28.70
2014,07,11,12,24,28.70
2014,07,11,12,25,28.70
2014,07,11,12,26,28.80
2014,07,11,12,27,28.80
2014,07,11,12,28,28.80
2014,07,11,12,29,28.90
2014,07,11,12,30,29.00
2014,07,11,12,31,29.10
2014,07,11,12,32,29.10
2014,07,11,12,33,29.20
2014,07,11,12,34,29.20
2014,07,11,12,35,29.20
2014,07,11,12,36,29.20
2014,07,11,12,37,29.10
2014,07,11,12,38,29.10
2014,07,11,12,39,29.10
2014,07,11,12,40,29.10
2014,07,11,12,41,29.10
2014,07,11,12,42,29.20
2014,07,11,12,43,29.20
2014,07,11,12,44,29.10
2014,07,11,12,45,29.10
2014,07,11,12,46,29.10
2014,07,11,12,47,29.10
2014,07,11,12,48,29.20
2014,07,11,12,49,29.30
2014,07,11,12,50,29.30
2014,07,11,12,51,29.30
2014,07,11,12,52,29.40
2014,07,11,12,53,29.40
2014,07,11,12,54,29.40
2014,07,11,12,55,29.50
2014,07,11,12,56,29.60
2014,07,11,12,57,29.70
2014,07,11,12,58,29.80
2014,07,11,12,59,30.00
2014,07,11,13,00,30.10
2014,07,11,13,01,30.20
2014,07,11,13,02,30.40
2014,07,11,13,03,30.50
2014,07,11,13,04,30.50
2014,07,11,13,05,30.40
2014,07,11,13,06,30.40
2014,07,11,13,07,30.30
2014,07,11,13,08,30.30
2014,07,11,13,09,30.40
2014,07,11,13,10,30.40
2014,07,11,13,11,30.40
2014,07,11,13,12,30.40
2014,07,11,13,13,30.50
2014,07,11,13,14,30.40
2014,07,11,13,15,30.40
2014,07,11,13,16,30.40
2014,07,11,13,17,30.40
2014,07,11,13,18,30.40
2014,07,11,13,19,30.40
2014,07,11,13,20,30.50
2014,07,11,13,21,30.60
2014,07,11,13,22,30.60
2014,07,11,13,23,30.70
2014,07,11,13,24,30.80
2014,07,11,13,25,30.80
2014,07,11,13,26,30.90
2014,07,11,13,27,31.00
2014,07,11,13,28,31.00
2014,07,11,13,29,31.00
2014,07,11,13,30,31.00
2014,07,11,13,31,31.00
2014,07,11,13,32,31.10
2014,07,11,13,33,31.10
2014,07,11,13,34,31.20
2014,07,11,13,35,31.20
2014,07,11,13,36,31.20
2014,07,11,13,37,31.40
2014,07,11,13,38,31.70
2014,07,11,13,39,31.80
2014,07,11,13,40,31.70
2014,07,11,13,41,31.70
2014,07,11,13,42,31.70
2014,07,11,13,43,31.60
2014,07,11,13,44,31.60
2014,07,11,13,45,31.60
2014,07,11,13,46,31.70
2014,07,11,13,47,31.80
2014,07,11,13,48,31.80
2014,07,11,13,49,31.90
2014,07,11,13,50,31.90
2014,07,11,13,51,31.80
2014,07,11,13,52,31.90
2014,07,11,13,53,31.90
2014,07,11,13,54,31.80
2014,07,11,13,55,31.80
2014,07,11,13,56,31.80
2014,07,11,13,57,31.90
2014,07,11,13,58,31.90
2014,07,11,13,59,31.80
2014,07,11,14,00,31.70
2014,07,11,14,01,31.60
2014,07,11,14,02,31.50
2014,07,11,14,03,31.50
2014,07,11,14,04,31.50
2014,07,11,14,05,31.60
2014,07,11,14,06,31.60
2014,07,11,14,07,31.70
2014,07,11,14,08,31.70
2014,07,11,14,09,31.70
2014,07,11,14,10,31.80
2014,07,11,14,11,31.80
2014,07,11,14,12,31.80
2014,07,11,14,13,31.80
2014,07,11,14,14,31.90
2014,07,11,14,15,32.00
2014,07,11,14,16,32.10
2014,07,11,14,17,32.20
2014,07,11,14,18,32.20
2014,07,11,14,19,32.30
2014,07,11,14,20,32.30
2014,07,11,14,21,32.30
2014,07,11,14,22,32.40
2014,07,11,14,23,32.40
2014,07,11,14,24,32.40
2014,07,11,14,25,32.50
2014,07,11,14,26,32.50
2014,07,11,14,27,32.50
2014,07,11,14,28,32.50
2014,07,11,14,29,32.50
2014,07,11,14,30,32.50
2014,07,11,14,31,32.50
2014,07,11,14,32,32.50
2014,07,11,14,33,32.60
2014,07,11,14,34,32.60
2014,07,11,14,35,32.60
2014,07,11,14,36,32.60
2014,07,11,14,37,32.50
2014,07,11,14,38,32.40
2014,07,11,14,39,32.40
2014,07,11,14,40,32.50
2014,07,11,14,41,32.50
2014,07,11,14,42,32.40
2014,07,11,14,43,32.40
2014,07,11,14,44,32.50
2014,07,11,14,45,32.50
2014,07,11,14,46,32.60
2014,07,11,14,47,32.60
2014,07,11,14,48,32.60
2014,07,11,14,49,32.50
2014,07,11,14,50,32.50
2014,07,11,14,51,32.40
2014,07,11,14,52,32.40
2014,07,11,14,53,32.50
2014,07,11,14,54,32.50
2014,07,11,14,55,32.60
2014,07,11,14,56,32.50
2014,07,11,14,57,32.50
2014,07,11,14,58,32.60
2014,07,11,14,59,32.60
2014,07,11,15,00,32.50
2014,07,11,15,01,32.50
2014,07,11,15,02,32.60
2014,07,11,15,03,32.60
2014,07,11,15,04,32.60
2014,07,11,15,05,32.70
2014,07,11,15,06,32.70
2014,07,11,15,07,32.70
2014,07,11,15,08,32.70
2014,07,11,15,09,32.80
2014,07,11,15,10,32.90
2014,07,11,15,11,32.90
2014,07,11,15,12,32.90
2014,07,11,15,13,32.90
2014,07,11,15,14,32.90
2014,07,11,15,15,32.90
2014,07,11,15,16,32.80
2014,07,11,15,17,32.80
2014,07,11,15,18,32.90
2014,07,11,15,19,32.90
2014,07,11,15,20,33.10
2014,07,11,15,21,33.20
2014,07,11,15,22,33.20
2014,07,11,15,23,33.20
2014,07,11,15,24,33.20
2014,07,11,15,25,33.20
2014,07,11,15,26,33.10
2014,07,11,15,27,33.10
2014,07,11,15,28,33.10
2014,07,11,15,29,33.20
2014,07,11,15,30,33.20
2014,07,11,15,31,33.30
2014,07,11,15,32,33.40
2014,07,11,15,33,33.40
2014,07,11,15,34,33.30
2014,07,11,15,35,33.20
2014,07,11,15,36,33.20
2014,07,11,15,37,33.10
2014,07,11,15,38,33.10
2014,07,11,15,39,33.10
2014,07,11,15,40,33.20
2014,07,11,15,41,33.20
2014,07,11,15,42,33.30
2014,07,11,15,43,33.30
2014,07,11,15,44,33.40
2014,07,11,15,45,33.60
2014,07,11,15,46,33.60
2014,07,11,15,47,33.70
2014,07,11,15,48,33.70
2014,07,11,15,49,33.60
2014,07,11,15,50,33.50
2014,07,11,15,51,33.40
2014,07,11,15,52,33.40
2014,07,11,15,53,33.40
2014,07,11,15,54,33.50
2014,07,11,15,55,33.80
2014,07,11,15,56,33.80
2014,07,11,15,57,33.80
2014,07,11,15,58,33.80
2014,07,11,15,59,33.80
2014,07,11,16,00,33.80
2014,07,11,16,01,33.80
2014,07,11,16,02,33.80
2014,07,11,16,03,33.80
2014,07,11,16,04,33.90
2014,07,11,16,05,33.80
2014,07,11,16,06,33.70
2014,07,11,16,07,33.70
2014,07,11,16,08,33.60
2014,07,11,16,09,33.60
2014,07,11,16,10,33.60
2014,07,11,16,11,33.70
2014,07,11,16,12,33.70
2014,07,11,16,13,33.70
2014,07,11,16,14,33.70
2014,07,11,16,15,33.70
2014,07,11,16,16,33.70
2014,07,11,16,17,33.70
2014,07,11,16,18,33.80
2014,07,11,16,19,33.80
2014,07,11,16,20,33.80
2014,07,11,16,21,33.80
2014,07,11,16,22,33.80
2014,07,11,16,23,33.70
2014,07,11,16,24,33.70
2014,07,11,16,25,33.70
2014,07,11,16,26,33.70
2014,07,11,16,27,33.70
2014,07,11,16,28,33.70
2014,07,11,16,29,33.60
2014,07,11,16,30,33.60
2014,07,11,16,31,33.60
2014,07,11,16,32,33.70
2014,07,11,16,33,33.80
2014,07,11,16,34,33.80
2014,07,11,16,35,33.80
2014,07,11,16,36,33.80
2014,07,11,16,37,33.80
2014,07,11,16,38,33.80
2014,07,11,16,39,33.90
2014,07,11,16,40,33.90
2014,07,11,16,41,33.80
2014,07,11,16,42,33.70
2014,07,11,16,43,33.70
2014,07,11,16,44,33.60
2014,07,11,16,45,33.70
2014,07,11,16,46,33.70
2014,07,11,16,47,33.70
2014,07,11,16,48,33.80
2014,07,11,16,49,34.00
2014,07,11,16,50,34.00
2014,07,11,16,51,33.90
2014,07,11,16,52,33.90
2014,07,11,16,53,33.90
2014,07,11,16,54,33.90
2014,07,11,16,55,34.00
2014,07,11,16,56,34.00
2014,07,11,16,57,34.10
2014,07,11,16,58,34.10
2014,07,11,16,59,34.10
2014,07,11,17,00,34.00
2014,07,11,17,01,33.80
2014,07,11,17,02,33.60
2014,07,11,17,03,33.50
2014,07,11,17,04,33.50
2014,07,11,17,05,33.50
2014,07,11,17,06,33.40
2014,07,11,17,07,33.20
2014,07,11,17,08,33.10
2014,07,11,17,09,33.10
2014,07,11,17,10,33.00
2014,07,11,17,11,32.90
2014,07,11,17,12,32.90
2014,07,11,17,13,32.80
2014,07,11,17,14,32.80
2014,07,11,17,15,32.80
2014,07,11,17,16,32.80
2014,07,11,17,17,32.80
2014,07,11,17,18,32.80
2014,07,11,17,19,32.80
2014,07,11,17,20,32.90
2014,07,11,17,21,33.00